Location: Madrid
(40.4000°N, 3.6830°W)
Time: 16:37:19
(UTC+02:00)

ISS - Pass Details

Date: 07 March 2021
Orbit: 418 x 422 km, 51.6° (Epoch: 16 April)

Event Time Altitude Azimuth Distance (km) Brightness Sun altitude
Exits shadow 06:28:17 - 327° (NNW) 1,549 -1.2 -14.3°
Reaches altitude 10° 06:28:26 10° 328° (NNW) 1,499 -1.2 -14.3°
Maximum altitude 06:31:09 22° 22° (NNE) 964 -1.6 -13.7°
Drops below altitude 10° 06:33:52 10° 76° (ENE) 1,496 0.5 -13.2°
Sets 06:36:16 0° 92° (E) 2,358 2.1 -12.8°
